Weather History for La Paz, Mexico

Change the Weather History Date:

Sunday, February 2, 2014

  Actual Average Record
Temperature  
Mean Temperature 65 °F -  
Max Temperature 75 °F 76 °F 86 °F (2003)
Min Temperature 55 °F 53 °F 41 °F (2011)
Growing Degree Days 15 (Base 50)    
Moisture  
Dew Point 52 °F    
Average Humidity 59    
Maximum Humidity 88    
Minimum Humidity 36    
Precipitation  
Precipitation 0.00 in - - ()
Sea Level Pressure  
Sea Level Pressure 30.00 in    
Wind  
Wind Speed 6 mph ()    
Max Wind Speed 18 mph    
Max Gust Speed -    
Visibility 9.9 miles    
Events      
Averages and records for this station are not official NWS values.
T = Trace of Precipitation, MM = Missing Value Source: Averaged Metar Reports

Daily Weather History Graph

Daily Weather History Graph

Search for Another Location

Airport:

Trip Planner

Search our weather history database for the weather conditions in past years. The results will help you decide how hot, cold, wet, or windy it might be!

Date:

Astronomy

Feb. 02, 2014 Rise Set
Actual Time 7:02 AM MST 6:08 PM MST
Civil Twilight 6:38 AM MST 6:32 PM MST
Nautical Twilight 6:11 AM MST 6:59 PM MST
Astronomical Twilight 5:44 AM MST 7:26 PM MST
Moon 8:57 AM MST (2/2) 9:26 PM MST (2/2)
Length of Visible Light 11h 53m
Length of Day
11h 06m
Waxing Crescent, 12% of the Moon is Illuminated
Feb 2
Waxing Crescent
Feb 6
First Quarter
Feb 14
Full
Feb 22
Last Quarter
Mar 1
New

Hourly Weather History & Observations

Time (MST) Temp. Dew Point Humidity Pressure Visibility Wind Dir Wind Speed Gust Speed Precip Events Conditions
1:45 AM 64 °F 57 °F 71% 29.96 in 2 mi South 2.2 mph - -   Mostly Cloudy
4:45 AM 62 °F 57 °F 78% 29.98 in 2 mi West 2.2 mph - -   Mostly Cloudy
5:40 AM 53.6 °F 50.0 °F 88% 30.00 in 10.0 mi South 3.5 mph - N/A   Partly Cloudy
7:40 AM 53.6 °F 50.0 °F 88% 30.04 in 10.0 mi Calm Calm - N/A   Scattered Clouds
7:45 AM 58 °F 53 °F 79% 30.02 in 12 mi South 2.2 mph - -   Mostly Cloudy
8:43 AM 64.4 °F 55.4 °F 73% 30.06 in 10.0 mi Calm Calm - N/A   Partly Cloudy
9:40 AM 69.8 °F 53.6 °F 56% 30.06 in 10.0 mi North 11.5 mph - N/A   Scattered Clouds
10:40 AM 71.6 °F 51.8 °F 50% 30.06 in 10.0 mi NNE 13.8 mph - N/A   Scattered Clouds
11:00 AM 72 °F 54 °F 44% 30.08 in 19 mi ENE 8.9 mph - -   Partly Cloudy
11:40 AM 71.6 °F 51.8 °F 50% 30.04 in 10.0 mi NNE 17.3 mph - N/A   Partly Cloudy
12:40 PM 71.6 °F 51.8 °F 50% 30.01 in 10.0 mi NNW 13.8 mph - N/A   Partly Cloudy
1:40 PM 76 °F 54 °F 36% 30.04 in 19 mi North 8.9 mph - -   Clear
1:40 PM 71.6 °F 51.8 °F 50% 29.99 in 10.0 mi North 18.4 mph - N/A   Scattered Clouds
2:53 PM 71.6 °F 50.0 °F 46% 29.96 in 10.0 mi North 16.1 mph - N/A   Scattered Clouds
3:41 PM 71.6 °F 50.0 °F 46% 29.96 in 10.0 mi North 13.8 mph - N/A   Scattered Clouds
4:43 PM 69.8 °F 50.0 °F 49% 29.96 in 10.0 mi North 13.8 mph - N/A   Scattered Clouds
4:50 PM 73 °F 52 °F 37% 29.94 in 19 mi North 8.9 mph - -  
5:46 PM 68.0 °F 48.2 °F 49% 29.97 in 10.0 mi NNE 11.5 mph - N/A   Partly Cloudy
6:40 PM 66.2 °F 50.0 °F 56% 29.98 in 10.0 mi NE 6.9 mph - N/A   Clear
7:50 PM 66 °F 54 °F 55% 29.98 in 2 mi NNE 4.5 mph - -  
7:52 PM 62.6 °F 50.0 °F 63% 30.00 in 10.0 mi Calm Calm - N/A   Clear
8:47 PM 60.8 °F 48.2 °F 63% 30.00 in 10.0 mi Calm Calm - N/A   Clear
9:43 PM 57.2 °F 46.4 °F 67% 30.01 in 10.0 mi Calm Calm - N/A   Clear
10:40 PM 55.4 °F 44.6 °F 67% 30.01 in 10.0 mi Calm Calm - N/A   Clear
10:50 PM 62 °F 54 °F 66% 30.00 in 2 mi NE 2.2 mph - -